Location: �bnet
(46.9957°N, 8.4908°E)
Time: 23:59:24
(UTC+00:00)

Cosmos 1340 Rocket - Pass Details

Date: 11 May 2021
Orbit: 527 x 559 km, 81.2° (Epoch: 18 June)

Event Time Altitude Azimuth Distance (km) Brightness Sun altitude
Rises 22:25:49 0° 339° (NNW) 2,758 7.8 -23.6°
Reaches altitude 10° 22:28:11 10° 329° (NNW) 1,856 6.5 -23.7°
Maximum altitude 22:31:46 30° 268° (W) 1,018 4.2 -23.9°
Enters shadow 22:31:56 30° 263° (W) 1,020 4.2 -23.9°
